Spearfish, SD

11:37 PM MDT on May 26, 2017 (GMT -0600)
Black Hills-Ice

Weather History for KSPF - April, 2014

Change the Weather History Date:

Thursday, April 3, 2014

  Actual Average (KEFC) Record (KEFC)
Temperature  
Mean Temperature 28 °F -  
Max Temperature 33 °F 53 °F 80 °F (1969)
Min Temperature 23 °F 27 °F 12 °F (1970)
Degree Days  
Heating Degree Days 37    
Moisture  
Dew Point 25 °F    
Average Humidity 84    
Maximum Humidity 100    
Minimum Humidity 65    
Precipitation  
Precipitation 0.00 in - - ()
Sea Level Pressure  
Sea Level Pressure 29.96 in    
Wind  
Wind Speed 8 mph (WNW)    
Max Wind Speed 18 mph    
Max Gust Speed 24 mph    
Visibility 9 miles    
Events Fog    
Averages and records for this station are not official NWS values.
T = Trace of Precipitation, MM = Missing Value Source: NWS Daily Summary

Daily Weather History Graph

Daily Weather History Graph

Search for Another Location

Airport or City:

Trip Planner

Search our weather history database for the weather conditions in past years. The results will help you decide how hot, cold, wet, or windy it might be!

Date:

Astronomy

Apr. 03, 2014 Rise Set
Actual Time 7:32 AM CDT 8:25 PM CDT
Civil Twilight 7:02 AM CDT 8:54 PM CDT
Nautical Twilight 6:27 AM CDT 9:29 PM CDT
Astronomical Twilight 5:51 AM CDT 10:06 PM CDT
Moon 9:55 AM CDT (4/3) No Moon Set
Length of Visible Light 13h 51m
Length of Day
12h 52m
Waxing Crescent, 17% of the Moon is Illuminated
Apr 3
Waxing Crescent
Apr 7
First Quarter
Apr 15
Full
Apr 22
Last Quarter
Apr 29
New

Hourly Weather History & Observations

Time (CDT) Temp. Windchill Dew Point Humidity Pressure Visibility Wind Dir Wind Speed Gust Speed Precip Events Conditions
12:15 AM 28.4 °F 23.3 °F 26.6 °F 93% 29.85 in 8.0 mi SSW 4.6 mph - N/A   Overcast
12:35 AM 26.6 °F - 26.6 °F 100% 29.84 in 8.0 mi Calm Calm - N/A   Mostly Cloudy
12:55 AM 26.6 °F 22.6 °F 26.6 °F 100% 29.84 in 6.0 mi NNE 3.5 mph - N/A   Overcast
1:15 AM 26.6 °F - 24.8 °F 93% 29.86 in 6.0 mi Calm Calm - N/A   Overcast
1:35 AM 26.6 °F 22.6 °F 26.6 °F 100% 29.85 in 7.0 mi SSW 3.5 mph - N/A   Overcast
1:55 AM 26.6 °F - 24.8 °F 93% 29.85 in 8.0 mi Calm Calm - N/A   Overcast
2:15 AM 24.8 °F 17.9 °F 24.8 °F 100% 29.85 in 7.0 mi South 5.8 mph - N/A   Overcast
2:35 AM 26.6 °F 22.6 °F 24.8 °F 93% 29.86 in 10.0 mi SW 3.5 mph - N/A   Overcast
2:55 AM 23.0 °F - 23.0 °F 100% 29.87 in 3.0 mi Calm Calm - N/A   Mostly Cloudy
3:15 AM 24.8 °F - 24.8 °F 100% 29.86 in 5.0 mi Calm Calm - N/A   Overcast
3:35 AM 26.6 °F 19.1 °F 24.8 °F 93% 29.86 in 7.0 mi WNW 6.9 mph - N/A   Overcast
3:55 AM 23.0 °F 13.1 °F 23.0 °F 100% 29.87 in 1.2 mi West 9.2 mph - N/A   Overcast
4:15 AM 23.0 °F 15.8 °F 23.0 °F 100% 29.87 in 0.2 mi West 5.8 mph - N/A Fog Light Freezing Fog
4:35 AM 23.0 °F 14.7 °F 23.0 °F 100% 29.87 in 0.2 mi WNW 6.9 mph - N/A Fog Light Freezing Fog
4:55 AM 24.8 °F 19.1 °F 23.0 °F 93% 29.87 in 1.0 mi West 4.6 mph - N/A   Overcast
5:15 AM 24.8 °F 19.1 °F 24.8 °F 100% 29.88 in 7.0 mi West 4.6 mph - N/A   Overcast
5:35 AM 26.6 °F 18.2 °F 24.8 °F 93% 29.89 in 10.0 mi NW 8.1 mph - N/A   Overcast
5:55 AM 26.6 °F 19.1 °F 26.6 °F 100% 29.89 in 10.0 mi WNW 6.9 mph - N/A   Overcast
6:15 AM 26.6 °F 16.8 °F 24.8 °F 93% 29.89 in 10.0 mi NW 10.4 mph - N/A   Overcast
6:35 AM 26.6 °F 16.8 °F 24.8 °F 93% 29.89 in 10.0 mi NW 10.4 mph - N/A   Overcast
6:55 AM 26.6 °F 18.2 °F 24.8 °F 93% 29.90 in 10.0 mi WNW 8.1 mph - N/A   Overcast
7:15 AM 28.4 °F 18.0 °F 24.8 °F 86% 29.90 in 10.0 mi West 12.7 mph - N/A   Overcast
7:35 AM 30.2 °F 19.8 °F 24.8 °F 80% 29.91 in 10.0 mi West 13.8 mph - N/A   Overcast
7:55 AM 30.2 °F 20.8 °F 24.8 °F 80% 29.92 in 10.0 mi West 11.5 mph - N/A   Overcast
8:15 AM 32.0 °F 22.5 °F 23.0 °F 69% 29.93 in 10.0 mi WNW 12.7 mph 19.6 mph N/A   Overcast
8:35 AM 32.0 °F 23.0 °F 23.0 °F 69% 29.93 in 10.0 mi West 11.5 mph - N/A   Overcast
8:55 AM 32.0 °F 22.5 °F 24.8 °F 75% 29.94 in 10.0 mi West 12.7 mph 18.4 mph N/A   Overcast
9:15 AM 32.0 °F 23.6 °F 24.8 °F 75% 29.94 in 10.0 mi West 10.4 mph - N/A   Overcast
9:35 AM 32.0 °F 24.2 °F 24.8 °F 75% 29.94 in 10.0 mi WNW 9.2 mph - N/A   Overcast
9:55 AM 32.0 °F 22.5 °F 24.8 °F 75% 29.95 in 10.0 mi NW 12.7 mph - N/A   Overcast
10:15 AM 32.0 °F 22.1 °F 24.8 °F 75% 29.96 in 10.0 mi NW 13.8 mph 18.4 mph N/A   Overcast
10:35 AM 32.0 °F 21.6 °F 24.8 °F 75% 29.96 in 10.0 mi WNW 15.0 mph 18.4 mph N/A   Overcast
10:55 AM 32.0 °F 22.1 °F 24.8 °F 75% 29.97 in 10.0 mi WNW 13.8 mph - N/A   Overcast
11:15 AM 32.0 °F 23.0 °F 24.8 °F 75% 29.97 in 10.0 mi West 11.5 mph 20.7 mph N/A   Overcast
11:35 AM 32.0 °F 20.8 °F 23.0 °F 69% 29.97 in 10.0 mi WNW 17.3 mph 21.9 mph N/A   Overcast
11:55 AM 32.0 °F 20.5 °F 23.0 °F 69% 29.97 in 10.0 mi West 18.4 mph 23.0 mph N/A   Overcast
12:15 PM 32.0 °F 22.5 °F 23.0 °F 69% 29.97 in 10.0 mi WNW 12.7 mph 24.2 mph N/A   Mostly Cloudy
12:35 PM 32.0 °F 21.6 °F 24.8 °F 75% 29.98 in 10.0 mi WNW 15.0 mph 20.7 mph N/A   Overcast
12:55 PM 32.0 °F 22.1 °F 26.6 °F 80% 29.99 in 10.0 mi NW 13.8 mph - N/A   Overcast
1:15 PM 32.0 °F 22.5 °F 26.6 °F 80% 29.99 in 10.0 mi NW 12.7 mph - N/A   Overcast
1:35 PM 32.0 °F 23.6 °F 26.6 °F 80% 30.00 in 10.0 mi NW 10.4 mph - N/A   Overcast
1:55 PM 32.0 °F 22.5 °F 26.6 °F 80% 30.00 in 10.0 mi NW 12.7 mph - N/A   Overcast
2:15 PM 30.2 °F 20.8 °F 26.6 °F 86% 30.01 in 10.0 mi NNW 11.5 mph - N/A   Mostly Cloudy
2:35 PM 30.2 °F 19.8 °F 26.6 °F 86% 30.01 in 10.0 mi NW 13.8 mph - N/A   Mostly Cloudy
2:55 PM 32.0 °F 23.6 °F 26.6 °F 80% 30.00 in 10.0 mi NW 10.4 mph - N/A   Partly Cloudy
3:15 PM 32.0 °F 22.5 °F 26.6 °F 80% 30.01 in 10.0 mi NW 12.7 mph - N/A   Mostly Cloudy
3:35 PM 32.0 °F 23.0 °F 26.6 °F 80% 30.00 in 10.0 mi NW 11.5 mph - N/A   Scattered Clouds
3:55 PM 32.0 °F 22.5 °F 24.8 °F 75% 30.00 in 10.0 mi NW 12.7 mph - N/A   Scattered Clouds
4:15 PM 32.0 °F 22.5 °F 24.8 °F 75% 30.01 in 10.0 mi NNW 12.7 mph 18.4 mph N/A   Mostly Cloudy
4:35 PM 32.0 °F 22.1 °F 24.8 °F 75% 30.01 in 10.0 mi NW 13.8 mph - N/A   Partly Cloudy
4:55 PM 33.8 °F 23.5 °F 24.8 °F 70% 30.01 in 10.0 mi NW 16.1 mph 21.9 mph N/A   Clear
5:15 PM 33.8 °F 23.5 °F 23.0 °F 65% 30.01 in 10.0 mi NW 16.1 mph 21.9 mph N/A   Clear
5:35 PM 33.8 °F 25.3 °F 24.8 °F 70% 30.02 in 10.0 mi NW 11.5 mph - N/A   Partly Cloudy
5:55 PM 32.0 °F 23.0 °F 24.8 °F 75% 30.02 in 10.0 mi NW 11.5 mph 19.6 mph N/A   Partly Cloudy
6:15 PM 33.8 °F 24.3 °F 24.8 °F 70% 30.02 in 10.0 mi NW 13.8 mph - N/A   Clear
6:35 PM 32.0 °F 22.1 °F 24.8 °F 75% 30.03 in 10.0 mi NW 13.8 mph - N/A   Clear
6:55 PM 32.0 °F 22.1 °F 24.8 °F 75% 30.03 in 10.0 mi NW 13.8 mph - N/A   Clear
7:15 PM 32.0 °F 22.5 °F 26.6 °F 80% 30.04 in 10.0 mi NNW 12.7 mph - N/A   Clear
7:35 PM 32.0 °F 22.5 °F 24.8 °F 75% 30.04 in 10.0 mi NW 12.7 mph - N/A   Clear
7:55 PM 32.0 °F 23.0 °F 24.8 °F 75% 30.04 in 10.0 mi NW 11.5 mph - N/A   Clear
8:15 PM 30.2 °F 21.3 °F 24.8 °F 80% 30.05 in 10.0 mi NW 10.4 mph - N/A   Clear
8:35 PM 28.4 °F 21.2 °F 24.8 °F 86% 30.04 in 10.0 mi WNW 6.9 mph - N/A   Clear
8:55 PM 26.6 °F 18.2 °F 24.8 °F 93% 30.05 in 10.0 mi WNW 8.1 mph - N/A   Clear
9:15 PM 26.6 °F 19.1 °F 24.8 °F 93% 30.06 in 10.0 mi WNW 6.9 mph - N/A   Clear
9:35 PM 26.6 °F 18.2 °F 24.8 °F 93% 30.06 in 10.0 mi West 8.1 mph - N/A   Clear
10:55 PM 28.4 °F 23.3 °F 24.8 °F 86% 30.07 in 10.0 mi NW 4.6 mph - N/A   Overcast
11:15 PM 28.4 °F 24.6 °F 24.8 °F 86% 30.07 in 10.0 mi NNW 3.5 mph - N/A   Overcast
11:35 PM 28.4 °F - 24.8 °F 86% 30.07 in 10.0 mi Calm Calm - N/A   Overcast
11:55 PM 28.4 °F 24.6 °F 24.8 °F 86% 30.07 in 10.0 mi NW 3.5 mph - N/A   Overcast